Home > Weather > Ghent > Past weeks

Flag for Belgium Past Weather in Ghent, Belgium — Yesterday and Last 2 Weeks

Now
60 °F

Cool.


Feels Like: 60 °F
Forecast: 55 / 65 °F
Wind: 2 mph from Southwest

Location: Munte

Current Time: Jun 26, 2016 at 7:24:32 PM

Latest Report: Jun 26, 2016 at 6:00 PM


Visibility: 13 mi

Pressure: 30.08 "Hg

Humidity: 85%

Dew Point: 55 °F

Location of GhentLocation

Past Weather in Ghent — Graph

°F

Ghent Temperature Yesterday

Maximum temperature yesterday: 69 °F (at 2:00 PM)
Minimum temperature yesterday: 56 °F (at 6:00 AM)
Average temperature yesterday: 61 °F

High & Low Weather Summary for the Past Weeks

 TemperatureHumidityPressure
High80 °F (Jun 23, 6:00 PM)100% (Jun 23, 11:00 AM)30.31 "Hg (Jun 23, 11:00 AM)
Low49 °F (Jun 16, 5:00 AM)51% (Jun 25, 4:00 PM)29.47 "Hg (Jun 14, 4:00 PM)
Average62 °F84%29.92 "Hg
* Reported Jun 11 6:00 PM — Jun 26 6:00 PM, Ghent, Weather by CustomWeather, © 2016

Note: Actual official high and low records may vary slightly from our data, if they occured in-between our weather recording intervals... More about our weather records

Advertising

Ghent Weather History for the Previous 24 Hours

Scroll right to see more
 ConditionsComfort  
Time TempWeatherWind HumidityBarometerVisibility
6:00 PM
Sun, Jun 26
60 °FCool.2 mph85%30.08 "Hg12 mi
5:00 PM57 °FCool.3 mph89%30.08 "Hg12 mi
4:00 PM60 °FCool.N/A82%30.07 "Hg12 mi
3:00 PM61 °FCool.N/A83%30.07 "Hg11 mi
2:00 PM56 °FLight rain. Cloudy.2 mph91%30.08 "Hg12 mi
1:00 PM64 °FMild.3 mph64%30.05 "Hg9 mi
12:00 PM63 °FMild.6 mph70%30.05 "Hg12 mi
11:00 AM60 °FLight rain. Cloudy.3 mph79%30.05 "Hg12 mi
10:00 AM60 °FCool.5 mph82%30.05 "Hg12 mi
9:00 AM58 °FCool.3 mph90%30.05 "Hg8 mi
8:00 AM56 °FCool.3 mph91%30.04 "Hg7 mi
7:00 AM54 °FCool.3 mph95%30.04 "Hg7 mi
6:00 AM53 °FCool.3 mph96%30.03 "Hg6 mi
5:00 AM55 °FCool.3 mph93%30.03 "Hg8 mi
4:00 AM55 °FCool.3 mph92%30.04 "Hg9 mi
3:00 AM55 °FCool.2 mph91%30.04 "Hg12 mi
2:00 AM55 °FCool.2 mph87%30.06 "Hg12 mi
1:00 AM54 °FCool.2 mph86%30.05 "Hg12 mi
12:00 AM56 °FCool.2 mph80%30.05 "Hg12 mi
11:00 PM
Sat, Jun 25
57 °FCool.N/A80%30.05 "Hg12 mi
10:00 PM59 °FCool.N/A77%30.05 "Hg12 mi
9:00 PM61 °FCool.N/A72%30.03 "Hg12 mi
8:00 PM62 °FCool.2 mph68%30.03 "Hg12 mi
7:00 PM60 °FCool.3 mph83%30.02 "Hg12 mi
Weather by CustomWeather, © 2016

See weather overviewHow to use our weather pages